To NAV CANADA Home Page Login to a new session Search on AWWS site Feedback and Comments Disclaimer Vers la page française équivalente Tips FAQ What's new on the site To the Forecasts and Observations / NOTAM section To "File a Flight Plan" website Publications and other links Update of the User's profile FIC Telephone Numbers My Weather Data Folder Route Weather Data Regional Weather Data Local Weather Data To the Forecasts and Observations / NOTAM section
Request Generated 08/22/2017 at 03:28:22 UTC . Weather information available at that time is displayed.

METAR/TAF

SALLUIT/QC    

LWIS CYZG 220300Z AUTO 04004KT 04/02 A2986=
LWIS CYZG 220200Z AUTO 04006KT 04/03 A2987=
LWIS CYZG 220100Z AUTO 05009KT 04/03 A2987=

*** REMARK        : Forecast period has ended; this was the last TAF issued
*** REMARQUE : La période de prévision est échue; ceci était le dernier TAF qui a été émis
TAF AMD CYZG 212016Z 2114/2121 FCST CNCLD DUE NO OBS
RMK NXT FCST WILL BE ISSUED AT 221345Z=
Your time UTC time
Weather data provided by Environment Canada and NAV CANADA